Year,Month,Day,Hour,Minute,Value (Times are PST for insolation in W/m^2)
2011,10,06,00,00,0.00
2011,10,06,00,01,0.00
2011,10,06,00,02,0.00
2011,10,06,00,03,0.00
2011,10,06,00,04,0.00
2011,10,06,00,05,0.00
2011,10,06,00,06,0.00
2011,10,06,00,07,0.00
2011,10,06,00,08,0.00
2011,10,06,00,09,0.00
2011,10,06,00,10,0.00
2011,10,06,00,11,0.00
2011,10,06,00,12,0.00
2011,10,06,00,13,0.00
2011,10,06,00,14,0.00
2011,10,06,00,15,0.00
2011,10,06,00,16,0.00
2011,10,06,00,17,0.00
2011,10,06,00,18,0.00
2011,10,06,00,19,0.00
2011,10,06,00,20,0.00
2011,10,06,00,21,0.00
2011,10,06,00,22,0.00
2011,10,06,00,23,0.00
2011,10,06,00,24,0.00
2011,10,06,00,25,0.00
2011,10,06,00,26,0.00
2011,10,06,00,27,0.00
2011,10,06,00,28,0.00
2011,10,06,00,29,0.00
2011,10,06,00,30,0.00
2011,10,06,00,31,0.00
2011,10,06,00,32,0.00
2011,10,06,00,33,0.00
2011,10,06,00,34,0.00
2011,10,06,00,35,0.00
2011,10,06,00,36,0.00
2011,10,06,00,37,0.00
2011,10,06,00,38,0.00
2011,10,06,00,39,0.00
2011,10,06,00,40,0.00
2011,10,06,00,41,0.00
2011,10,06,00,42,0.00
2011,10,06,00,43,0.00
2011,10,06,00,44,0.00
2011,10,06,00,45,0.00
2011,10,06,00,46,0.00
2011,10,06,00,47,0.00
2011,10,06,00,48,0.00
2011,10,06,00,49,0.00
2011,10,06,00,50,0.00
2011,10,06,00,51,0.00
2011,10,06,00,52,0.00
2011,10,06,00,53,0.00
2011,10,06,00,54,0.00
2011,10,06,00,55,0.00
2011,10,06,00,56,0.00
2011,10,06,00,57,0.00
2011,10,06,00,58,0.00
2011,10,06,00,59,0.00
2011,10,06,01,00,0.00
2011,10,06,01,01,0.00
2011,10,06,01,02,0.00
2011,10,06,01,03,0.00
2011,10,06,01,04,0.00
2011,10,06,01,05,0.00
2011,10,06,01,06,0.00
2011,10,06,01,07,0.00
2011,10,06,01,08,0.00
2011,10,06,01,09,0.00
2011,10,06,01,10,0.00
2011,10,06,01,11,0.00
2011,10,06,01,12,0.00
2011,10,06,01,13,0.00
2011,10,06,01,14,0.00
2011,10,06,01,15,0.00
2011,10,06,01,16,0.00
2011,10,06,01,17,0.00
2011,10,06,01,18,0.00
2011,10,06,01,19,0.00
2011,10,06,01,20,0.00
2011,10,06,01,21,0.00
2011,10,06,01,22,0.00
2011,10,06,01,23,0.00
2011,10,06,01,24,0.00
2011,10,06,01,25,0.00
2011,10,06,01,26,0.00
2011,10,06,01,27,0.00
2011,10,06,01,28,0.00
2011,10,06,01,29,0.00
2011,10,06,01,30,0.00
2011,10,06,01,31,0.00
2011,10,06,01,32,0.00
2011,10,06,01,33,0.00
2011,10,06,01,34,0.00
2011,10,06,01,35,0.00
2011,10,06,01,36,0.00
2011,10,06,01,37,0.00
2011,10,06,01,38,0.00
2011,10,06,01,39,0.00
2011,10,06,01,40,0.00
2011,10,06,01,41,0.00
2011,10,06,01,42,0.00
2011,10,06,01,43,0.00
2011,10,06,01,44,0.00
2011,10,06,01,45,0.00
2011,10,06,01,46,0.00
2011,10,06,01,47,0.00
2011,10,06,01,48,0.00
2011,10,06,01,49,0.00
2011,10,06,01,50,0.00
2011,10,06,01,51,0.00
2011,10,06,01,52,0.00
2011,10,06,01,53,0.00
2011,10,06,01,54,0.00
2011,10,06,01,55,0.00
2011,10,06,01,56,0.00
2011,10,06,01,57,0.00
2011,10,06,01,58,0.00
2011,10,06,01,59,0.00
2011,10,06,02,00,0.00
2011,10,06,02,01,0.00
2011,10,06,02,02,0.00
2011,10,06,02,03,0.00
2011,10,06,02,04,0.00
2011,10,06,02,05,0.00
2011,10,06,02,06,0.00
2011,10,06,02,07,0.00
2011,10,06,02,08,0.00
2011,10,06,02,09,0.00
2011,10,06,02,10,0.00
2011,10,06,02,11,0.00
2011,10,06,02,12,0.00
2011,10,06,02,13,0.00
2011,10,06,02,14,0.00
2011,10,06,02,15,0.00
2011,10,06,02,16,0.00
2011,10,06,02,17,0.00
2011,10,06,02,18,0.00
2011,10,06,02,19,0.00
2011,10,06,02,20,0.00
2011,10,06,02,21,0.00
2011,10,06,02,22,0.00
2011,10,06,02,23,0.00
2011,10,06,02,24,0.00
2011,10,06,02,25,0.00
2011,10,06,02,26,0.00
2011,10,06,02,27,0.00
2011,10,06,02,28,0.00
2011,10,06,02,29,0.00
2011,10,06,02,30,0.00
2011,10,06,02,31,0.00
2011,10,06,02,32,0.00
2011,10,06,02,33,0.00
2011,10,06,02,34,0.00
2011,10,06,02,35,0.00
2011,10,06,02,36,0.00
2011,10,06,02,37,0.00
2011,10,06,02,38,0.00
2011,10,06,02,39,0.00
2011,10,06,02,40,0.00
2011,10,06,02,41,0.00
2011,10,06,02,42,0.00
2011,10,06,02,43,0.00
2011,10,06,02,44,0.00
2011,10,06,02,45,0.00
2011,10,06,02,46,0.00
2011,10,06,02,47,0.00
2011,10,06,02,48,0.00
2011,10,06,02,49,0.00
2011,10,06,02,50,0.00
2011,10,06,02,51,0.00
2011,10,06,02,52,0.00
2011,10,06,02,53,0.00
2011,10,06,02,54,0.00
2011,10,06,02,55,0.00
2011,10,06,02,56,0.00
2011,10,06,02,57,0.00
2011,10,06,02,58,0.00
2011,10,06,02,59,0.00
2011,10,06,03,00,0.00
2011,10,06,03,01,0.00
2011,10,06,03,02,0.00
2011,10,06,03,03,0.00
2011,10,06,03,04,0.00
2011,10,06,03,05,0.00
2011,10,06,03,06,0.00
2011,10,06,03,07,0.00
2011,10,06,03,08,0.00
2011,10,06,03,09,0.00
2011,10,06,03,10,0.00
2011,10,06,03,11,0.00
2011,10,06,03,12,0.00
2011,10,06,03,13,0.00
2011,10,06,03,14,0.00
2011,10,06,03,15,0.00
2011,10,06,03,16,0.00
2011,10,06,03,17,0.00
2011,10,06,03,18,0.00
2011,10,06,03,19,0.00
2011,10,06,03,20,0.00
2011,10,06,03,21,0.00
2011,10,06,03,22,0.00
2011,10,06,03,23,0.00
2011,10,06,03,24,0.00
2011,10,06,03,25,0.00
2011,10,06,03,26,0.00
2011,10,06,03,27,0.00
2011,10,06,03,28,0.00
2011,10,06,03,29,0.00
2011,10,06,03,30,0.00
2011,10,06,03,31,0.00
2011,10,06,03,32,0.00
2011,10,06,03,33,0.00
2011,10,06,03,34,0.00
2011,10,06,03,35,0.00
2011,10,06,03,36,0.00
2011,10,06,03,37,0.00
2011,10,06,03,38,0.00
2011,10,06,03,39,0.00
2011,10,06,03,40,0.00
2011,10,06,03,41,0.00
2011,10,06,03,42,0.00
2011,10,06,03,43,0.00
2011,10,06,03,44,0.00
2011,10,06,03,45,0.00
2011,10,06,03,49,0.00
2011,10,06,03,50,0.00
2011,10,06,03,51,0.00
2011,10,06,03,52,0.00
2011,10,06,03,53,0.00
2011,10,06,03,54,0.00
2011,10,06,03,55,0.00
2011,10,06,03,56,0.00
2011,10,06,03,57,0.00
2011,10,06,03,58,0.00
2011,10,06,03,59,0.00
2011,10,06,04,00,0.00
2011,10,06,04,01,0.00
2011,10,06,04,02,0.00
2011,10,06,04,03,0.00
2011,10,06,04,04,0.00
2011,10,06,04,05,0.00
2011,10,06,04,06,0.00
2011,10,06,04,07,0.00
2011,10,06,04,08,0.00
2011,10,06,04,09,0.00
2011,10,06,04,10,0.00
2011,10,06,04,11,0.00
2011,10,06,04,12,0.00
2011,10,06,04,13,0.00
2011,10,06,04,14,0.00
2011,10,06,04,15,0.00
2011,10,06,04,16,0.00
2011,10,06,04,17,0.00
2011,10,06,04,18,0.00
2011,10,06,04,19,0.00
2011,10,06,04,20,0.00
2011,10,06,04,21,0.00
2011,10,06,04,22,0.00
2011,10,06,04,23,0.00
2011,10,06,04,24,0.00
2011,10,06,04,25,0.00
2011,10,06,04,26,0.00
2011,10,06,04,27,0.00
2011,10,06,04,28,0.00
2011,10,06,04,29,0.00
2011,10,06,04,30,0.00
2011,10,06,04,31,0.00
2011,10,06,04,32,0.00
2011,10,06,04,33,0.00
2011,10,06,04,34,0.00
2011,10,06,04,35,0.00
2011,10,06,04,36,0.00
2011,10,06,04,37,0.00
2011,10,06,04,38,0.00
2011,10,06,04,39,0.00
2011,10,06,04,40,0.00
2011,10,06,04,41,0.00
2011,10,06,04,42,0.00
2011,10,06,04,43,0.00
2011,10,06,04,44,0.00
2011,10,06,04,45,0.00
2011,10,06,04,46,0.00
2011,10,06,04,47,0.00
2011,10,06,04,48,0.00
2011,10,06,04,49,0.00
2011,10,06,04,50,0.00
2011,10,06,04,51,0.00
2011,10,06,04,52,0.00
2011,10,06,04,53,0.00
2011,10,06,04,54,0.00
2011,10,06,04,55,0.00
2011,10,06,04,56,0.00
2011,10,06,04,57,0.00
2011,10,06,04,58,0.00
2011,10,06,04,59,0.00
2011,10,06,05,00,0.00
2011,10,06,05,01,0.00
2011,10,06,05,02,0.00
2011,10,06,05,03,0.00
2011,10,06,05,04,0.00
2011,10,06,05,05,0.00
2011,10,06,05,06,0.00
2011,10,06,05,07,0.00
2011,10,06,05,08,0.00
2011,10,06,05,09,0.00
2011,10,06,05,10,0.00
2011,10,06,05,11,0.00
2011,10,06,05,12,0.00
2011,10,06,05,13,0.00
2011,10,06,05,14,0.00
2011,10,06,05,15,0.00
2011,10,06,05,16,0.00
2011,10,06,05,17,0.00
2011,10,06,05,18,0.00
2011,10,06,05,19,0.00
2011,10,06,05,20,0.00
2011,10,06,05,21,0.00
2011,10,06,05,22,0.00
2011,10,06,05,23,0.00
2011,10,06,05,24,0.00
2011,10,06,05,25,0.00
2011,10,06,05,26,0.00
2011,10,06,05,27,0.00
2011,10,06,05,28,0.00
2011,10,06,05,29,0.00
2011,10,06,05,30,0.00
2011,10,06,05,31,0.00
2011,10,06,05,32,0.00
2011,10,06,05,33,0.00
2011,10,06,05,34,0.00
2011,10,06,05,35,0.00
2011,10,06,05,36,0.00
2011,10,06,05,37,0.00
2011,10,06,05,38,0.00
2011,10,06,05,39,0.00
2011,10,06,05,40,0.00
2011,10,06,05,41,0.00
2011,10,06,05,42,0.00
2011,10,06,05,43,0.00
2011,10,06,05,44,0.00
2011,10,06,05,45,0.00
2011,10,06,05,46,0.00
2011,10,06,05,47,0.00
2011,10,06,05,48,0.00
2011,10,06,05,49,0.00
2011,10,06,05,50,0.00
2011,10,06,05,51,0.00
2011,10,06,05,52,0.00
2011,10,06,05,53,0.00
2011,10,06,05,54,0.00
2011,10,06,05,55,0.00
2011,10,06,05,56,0.00
2011,10,06,05,57,0.00
2011,10,06,05,58,0.00
2011,10,06,05,59,0.00
2011,10,06,06,00,0.00
2011,10,06,06,01,0.00
2011,10,06,06,02,0.00
2011,10,06,06,03,0.00
2011,10,06,06,04,0.00
2011,10,06,06,05,0.00
2011,10,06,06,06,0.00
2011,10,06,06,07,0.00
2011,10,06,06,08,0.00
2011,10,06,06,09,0.00
2011,10,06,06,10,0.00
2011,10,06,06,11,0.00
2011,10,06,06,12,0.00
2011,10,06,06,13,0.00
2011,10,06,06,14,0.00
2011,10,06,06,15,0.00
2011,10,06,06,16,0.00
2011,10,06,06,17,0.00
2011,10,06,06,18,0.00
2011,10,06,06,19,0.00
2011,10,06,06,20,0.00
2011,10,06,06,21,0.00
2011,10,06,06,22,0.00
2011,10,06,06,23,0.00
2011,10,06,06,24,0.00
2011,10,06,06,25,0.00
2011,10,06,06,26,0.00
2011,10,06,06,27,0.00
2011,10,06,06,28,0.00
2011,10,06,06,29,0.00
2011,10,06,06,30,0.00
2011,10,06,06,31,0.00
2011,10,06,06,32,0.00
2011,10,06,06,33,0.00
2011,10,06,06,34,0.00
2011,10,06,06,35,0.00
2011,10,06,06,36,0.00
2011,10,06,06,37,0.00
2011,10,06,06,38,0.00
2011,10,06,06,39,0.00
2011,10,06,06,40,0.00
2011,10,06,06,41,0.00
2011,10,06,06,42,0.00
2011,10,06,06,43,0.00
2011,10,06,06,44,0.00
2011,10,06,06,45,0.00
2011,10,06,06,46,0.00
2011,10,06,06,47,0.00
2011,10,06,06,48,0.00
2011,10,06,06,49,0.00
2011,10,06,06,50,0.00
2011,10,06,06,51,0.00
2011,10,06,06,52,0.00
2011,10,06,06,53,0.00
2011,10,06,06,54,0.00
2011,10,06,06,55,0.00
2011,10,06,06,56,0.00
2011,10,06,06,57,0.00
2011,10,06,06,58,0.00
2011,10,06,06,59,0.00
2011,10,06,07,00,0.00
2011,10,06,07,01,0.00
2011,10,06,07,02,0.00
2011,10,06,07,03,0.00
2011,10,06,07,04,0.00
2011,10,06,07,05,0.00
2011,10,06,07,06,0.00
2011,10,06,07,07,0.00
2011,10,06,07,08,0.00
2011,10,06,07,09,0.00
2011,10,06,07,10,0.00
2011,10,06,07,11,0.00
2011,10,06,07,12,0.00
2011,10,06,07,13,0.00
2011,10,06,07,14,0.00
2011,10,06,07,15,0.00
2011,10,06,07,16,0.00
2011,10,06,07,17,0.00
2011,10,06,07,18,0.00
2011,10,06,07,19,0.00
2011,10,06,07,20,0.00
2011,10,06,07,21,0.00
2011,10,06,07,22,1.60
2011,10,06,07,23,5.00
2011,10,06,07,24,5.00
2011,10,06,07,25,5.00
2011,10,06,07,26,5.00
2011,10,06,07,27,5.60
2011,10,06,07,28,7.00
2011,10,06,07,29,7.00
2011,10,06,07,30,7.00
2011,10,06,07,31,7.60
2011,10,06,07,32,9.00
2011,10,06,07,33,9.00
2011,10,06,07,34,9.00
2011,10,06,07,35,9.70
2011,10,06,07,36,11.00
2011,10,06,07,37,11.00
2011,10,06,07,38,11.40
2011,10,06,07,39,12.00
2011,10,06,07,40,12.00
2011,10,06,07,41,12.00
2011,10,06,07,42,12.00
2011,10,06,07,43,12.70
2011,10,06,07,44,14.00
2011,10,06,07,45,14.00
2011,10,06,07,46,14.70
2011,10,06,07,47,16.00
2011,10,06,07,48,16.00
2011,10,06,07,49,16.00
2011,10,06,07,50,16.70
2011,10,06,07,51,18.00
2011,10,06,07,52,18.30
2011,10,06,07,53,19.00
2011,10,06,07,54,19.00
2011,10,06,07,55,19.70
2011,10,06,07,56,21.00
2011,10,06,07,57,21.00
2011,10,06,07,58,22.70
2011,10,06,07,59,30.10
2011,10,06,08,00,39.30
2011,10,06,08,01,39.10
2011,10,06,08,02,37.70
2011,10,06,08,03,39.90
2011,10,06,08,04,41.40
2011,10,06,08,05,42.10
2011,10,06,08,06,47.00
2011,10,06,08,07,46.70
2011,10,06,08,08,45.40
2011,10,06,08,09,44.70
2011,10,06,08,10,46.90
2011,10,06,08,11,49.00
2011,10,06,08,12,50.20
2011,10,06,08,13,54.60
2011,10,06,08,14,59.20
2011,10,06,08,15,59.30
2011,10,06,08,16,51.70
2011,10,06,08,17,50.30
2011,10,06,08,18,53.30
2011,10,06,08,19,53.70
2011,10,06,08,20,54.50
2011,10,06,08,21,59.20
2011,10,06,08,22,62.90
2011,10,06,08,23,66.20
2011,10,06,08,24,71.40
2011,10,06,08,25,76.00
2011,10,06,08,26,76.00
2011,10,06,08,27,74.00
2011,10,06,08,28,71.30
2011,10,06,08,29,74.60
2011,10,06,08,30,74.20
2011,10,06,08,31,71.80
2011,10,06,08,32,76.00
2011,10,06,08,33,79.60
2011,10,06,08,34,92.80
2011,10,06,08,35,110.30
2011,10,06,08,36,125.60
2011,10,06,08,37,116.90
2011,10,06,08,38,99.80
2011,10,06,08,39,113.70
2011,10,06,08,40,120.00
2011,10,06,08,41,115.50
2011,10,06,08,42,106.20
2011,10,06,08,43,118.00
2011,10,06,08,44,145.00
2011,10,06,08,45,155.90
2011,10,06,08,46,143.20
2011,10,06,08,47,121.40
2011,10,06,08,48,120.30
2011,10,06,08,49,134.10
2011,10,06,08,50,132.60
2011,10,06,08,51,131.30
2011,10,06,08,52,132.80
2011,10,06,08,53,152.20
2011,10,06,08,54,153.80
2011,10,06,08,55,165.70
2011,10,06,08,56,183.50
2011,10,06,08,57,172.60
2011,10,06,08,58,192.30
2011,10,06,08,59,189.90
2011,10,06,09,00,197.20
2011,10,06,09,01,191.50
2011,10,06,09,02,190.70
2011,10,06,09,03,197.60
2011,10,06,09,04,199.90
2011,10,06,09,05,202.60
2011,10,06,09,06,204.90
2011,10,06,09,07,207.60
2011,10,06,09,08,209.60
2011,10,06,09,09,211.90
2011,10,06,09,10,214.00
2011,10,06,09,11,215.20
2011,10,06,09,12,218.00
2011,10,06,09,13,219.50
2011,10,06,09,14,223.60
2011,10,06,09,15,225.70
2011,10,06,09,16,227.60
2011,10,06,09,17,229.30
2011,10,06,09,18,231.20
2011,10,06,09,19,234.90
2011,10,06,09,20,237.60
2011,10,06,09,21,240.30
2011,10,06,09,22,243.30
2011,10,06,09,23,245.20
2011,10,06,09,24,248.90
2011,10,06,09,25,251.60
2011,10,06,09,26,254.20
2011,10,06,09,27,257.90
2011,10,06,09,28,261.20
2011,10,06,09,29,264.00
2011,10,06,09,30,266.10
2011,10,06,09,31,271.30
2011,10,06,09,32,273.20
2011,10,06,09,33,276.90
2011,10,06,09,34,279.60
2011,10,06,09,35,282.20
2011,10,06,09,36,286.80
2011,10,06,09,37,291.30
2011,10,06,09,38,295.50
2011,10,06,09,39,300.50
2011,10,06,09,40,305.50
2011,10,06,09,41,310.80
2011,10,06,09,42,316.50
2011,10,06,09,43,321.50
2011,10,06,09,44,326.50
2011,10,06,09,45,330.60
2011,10,06,09,46,333.20
2011,10,06,09,47,337.60
2011,10,06,09,48,342.20
2011,10,06,09,49,347.10
2011,10,06,09,50,353.50
2011,10,06,09,51,360.00
2011,10,06,09,52,368.30
2011,10,06,09,53,372.50
2011,10,06,09,54,376.00
2011,10,06,09,55,376.00
2011,10,06,09,56,376.00
2011,10,06,09,57,376.00
2011,10,06,09,58,374.50
2011,10,06,09,59,369.50
2011,10,06,10,00,366.30
2011,10,06,10,01,367.60
2011,10,06,10,02,361.80
2011,10,06,10,03,345.00
2011,10,06,10,04,352.80
2011,10,06,10,05,376.70
2011,10,06,10,06,394.80
2011,10,06,10,07,402.40
2011,10,06,10,08,384.50
2011,10,06,10,09,340.30
2011,10,06,10,10,281.70
2011,10,06,10,11,252.40
2011,10,06,10,12,202.00
2011,10,06,10,13,207.70
2011,10,06,10,14,228.50
2011,10,06,10,15,241.80
2011,10,06,10,16,250.90
2011,10,06,10,17,277.60
2011,10,06,10,18,236.70
2011,10,06,10,19,236.00
2011,10,06,10,20,240.50
2011,10,06,10,21,260.60
2011,10,06,10,22,279.40
2011,10,06,10,23,278.20
2011,10,06,10,24,297.80
2011,10,06,10,25,316.60
2011,10,06,10,26,345.70
2011,10,06,10,27,362.70
2011,10,06,10,28,396.70
2011,10,06,10,29,378.00
2011,10,06,10,30,362.00
2011,10,06,10,31,345.80
2011,10,06,10,32,357.00
2011,10,06,10,33,360.60
2011,10,06,10,34,369.00
2011,10,06,10,35,310.30
2011,10,06,10,36,176.70
2011,10,06,10,37,167.70
2011,10,06,10,38,185.20
2011,10,06,10,39,213.90
2011,10,06,10,40,241.80
2011,10,06,10,41,207.60
2011,10,06,10,42,223.50
2011,10,06,10,43,234.10
2011,10,06,10,44,238.10
2011,10,06,10,45,278.70
2011,10,06,10,46,278.80
2011,10,06,10,47,314.30
2011,10,06,10,48,322.00
2011,10,06,10,49,319.90
2011,10,06,10,50,328.20
2011,10,06,10,51,350.30
2011,10,06,10,52,321.60
2011,10,06,10,53,298.40
2011,10,06,10,54,290.00
2011,10,06,10,55,304.70
2011,10,06,10,56,333.90
2011,10,06,10,57,338.20
2011,10,06,10,58,380.20
2011,10,06,10,59,395.40
2011,10,06,11,00,432.30
2011,10,06,11,01,499.50
2011,10,06,11,02,502.40
2011,10,06,11,03,449.30
2011,10,06,11,04,436.10
2011,10,06,11,05,413.10
2011,10,06,11,06,401.20
2011,10,06,11,07,411.00
2011,10,06,11,08,411.00
2011,10,06,11,09,377.40
2011,10,06,11,10,297.50
2011,10,06,11,11,290.10
2011,10,06,11,12,284.30
2011,10,06,11,13,292.90
2011,10,06,11,14,297.70
2011,10,06,11,15,304.00
2011,10,06,11,16,298.90
2011,10,06,11,17,288.50
2011,10,06,11,18,293.50
2011,10,06,11,19,299.70
2011,10,06,11,20,309.00
2011,10,06,11,21,316.60
2011,10,06,11,22,307.60
2011,10,06,11,23,281.70
2011,10,06,11,24,274.00
2011,10,06,11,25,274.60
2011,10,06,11,26,284.40
2011,10,06,11,27,321.40
2011,10,06,11,28,344.00
2011,10,06,11,29,299.90
2011,10,06,11,30,295.60
2011,10,06,11,31,297.00
2011,10,06,11,32,291.30
2011,10,06,11,33,274.70
2011,10,06,11,34,264.20
2011,10,06,11,35,255.60
2011,10,06,11,36,247.90
2011,10,06,11,37,243.30
2011,10,06,11,38,265.20
2011,10,06,11,39,284.60
2011,10,06,11,40,222.40
2011,10,06,11,41,223.70
2011,10,06,11,42,230.00
2011,10,06,11,43,236.00
2011,10,06,11,44,249.40
2011,10,06,11,45,248.00
2011,10,06,11,46,248.00
2011,10,06,11,47,248.00
2011,10,06,11,48,248.00
2011,10,06,11,49,404.90
2011,10,06,11,50,746.80
2011,10,06,11,51,751.00
2011,10,06,11,52,613.90
2011,10,06,11,53,294.00
2011,10,06,11,54,294.00
2011,10,06,11,55,294.00
2011,10,06,11,56,294.00
2011,10,06,11,57,294.00
2011,10,06,11,58,294.00
2011,10,06,11,59,321.30
2011,10,06,12,00,385.00
2011,10,06,12,01,353.10
2011,10,06,12,02,296.80
2011,10,06,12,03,313.70
2011,10,06,12,04,339.00
2011,10,06,12,05,422.40
2011,10,06,12,06,604.40
2011,10,06,12,07,577.00
2011,10,06,12,08,577.00
2011,10,06,12,09,486.10
2011,10,06,12,10,274.00
2011,10,06,12,11,330.40
2011,10,06,12,12,462.00
2011,10,06,12,13,462.00
2011,10,06,12,14,435.60
2011,10,06,12,15,358.40
2011,10,06,12,16,319.90
2011,10,06,12,17,315.90
2011,10,06,12,18,328.20
2011,10,06,12,19,361.30
2011,10,06,12,20,354.50
2011,10,06,12,21,298.20
2011,10,06,12,22,316.60
2011,10,06,12,23,301.00
2011,10,06,12,24,291.30
2011,10,06,12,25,283.80
2011,10,06,12,26,285.20
2011,10,06,12,27,295.00
2011,10,06,12,28,295.00
2011,10,06,12,29,295.00
2011,10,06,12,30,295.00
2011,10,06,12,31,286.20
2011,10,06,12,32,261.30
2011,10,06,12,33,247.40
2011,10,06,12,34,269.10
2011,10,06,12,35,341.60
2011,10,06,12,36,385.00
2011,10,06,12,37,366.40
2011,10,06,12,38,323.00
2011,10,06,12,39,323.00
2011,10,06,12,40,422.90
2011,10,06,12,41,634.20
2011,10,06,12,42,587.00
2011,10,06,12,43,587.00
2011,10,06,12,44,517.40
2011,10,06,12,45,349.90
2011,10,06,12,46,346.40
2011,10,06,12,47,352.40
2011,10,06,12,48,312.20
2011,10,06,12,49,280.10
2011,10,06,12,50,266.10
2011,10,06,12,51,277.90
2011,10,06,12,52,293.40
2011,10,06,12,53,294.80
2011,10,06,12,54,303.40
2011,10,06,12,55,310.80
2011,10,06,12,56,318.10
2011,10,06,12,57,318.80
2011,10,06,12,58,304.80
2011,10,06,12,59,292.60
2011,10,06,13,00,282.50
2011,10,06,13,01,270.40
2011,10,06,13,02,267.00
2011,10,06,13,03,266.10
2011,10,06,13,04,263.40
2011,10,06,13,05,262.00
2011,10,06,13,06,264.80
2011,10,06,13,07,278.80
2011,10,06,13,08,299.10
2011,10,06,13,09,306.10
2011,10,06,13,10,311.60
2011,10,06,13,11,317.80
2011,10,06,13,12,309.80
2011,10,06,13,13,263.50
2011,10,06,13,14,260.00
2011,10,06,13,15,263.60
2011,10,06,13,16,265.70
2011,10,06,13,17,250.70
2011,10,06,13,18,249.40
2011,10,06,13,19,254.90
2011,10,06,13,20,273.40
2011,10,06,13,21,279.00
2011,10,06,13,22,267.60
2011,10,06,13,23,241.90
2011,10,06,13,24,247.30
2011,10,06,13,25,259.80
2011,10,06,13,26,296.80
2011,10,06,13,27,357.00
2011,10,06,13,28,357.00
2011,10,06,13,29,357.00
2011,10,06,13,30,478.60
2011,10,06,13,31,765.10
2011,10,06,13,32,828.60
2011,10,06,13,33,848.30
2011,10,06,13,34,833.60
2011,10,06,13,35,814.00
2011,10,06,13,36,814.00
2011,10,06,13,37,814.00
2011,10,06,13,38,692.80
2011,10,06,13,39,410.00
2011,10,06,13,40,410.00
2011,10,06,13,41,508.10
2011,10,06,13,42,721.10
2011,10,06,13,43,684.00
2011,10,06,13,44,684.00
2011,10,06,13,45,684.00
2011,10,06,13,46,661.60
2011,10,06,13,47,613.00
2011,10,06,13,48,506.50
2011,10,06,13,49,251.70
2011,10,06,13,50,237.00
2011,10,06,13,51,238.80
2011,10,06,13,52,247.50
2011,10,06,13,53,257.70
2011,10,06,13,54,273.20
2011,10,06,13,55,311.00
2011,10,06,13,56,311.00
2011,10,06,13,57,302.20
2011,10,06,13,58,277.30
2011,10,06,13,59,264.90
2011,10,06,14,00,270.60
2011,10,06,14,01,276.60
2011,10,06,14,02,267.70
2011,10,06,14,03,257.90
2011,10,06,14,04,254.20
2011,10,06,14,05,257.90
2011,10,06,14,06,261.20
2011,10,06,14,07,265.60
2011,10,06,14,08,268.40
2011,10,06,14,09,264.30
2011,10,06,14,10,255.60
2011,10,06,14,11,249.40
2011,10,06,14,12,249.50
2011,10,06,14,13,259.00
2011,10,06,14,14,284.30
2011,10,06,14,15,313.00
2011,10,06,14,16,303.50
2011,10,06,14,17,284.20
2011,10,06,14,18,290.00
2011,10,06,14,19,300.30
2011,10,06,14,20,300.70
2011,10,06,14,21,309.60
2011,10,06,14,22,367.00
2011,10,06,14,23,337.00
2011,10,06,14,24,268.50
2011,10,06,14,25,280.70
2011,10,06,14,26,306.70
2011,10,06,14,27,320.00
2011,10,06,14,28,320.00
2011,10,06,14,29,320.00
2011,10,06,14,30,320.00
2011,10,06,14,31,416.60
2011,10,06,14,32,642.00
2011,10,06,14,33,533.70
2011,10,06,14,34,279.20
2011,10,06,14,35,274.00
2011,10,06,14,36,271.30
2011,10,06,14,37,266.20
2011,10,06,14,38,272.00
2011,10,06,14,39,279.00
2011,10,06,14,40,279.00
2011,10,06,14,41,279.00
2011,10,06,14,42,308.10
2011,10,06,14,43,366.70
2011,10,06,14,44,345.90
2011,10,06,14,45,357.90
2011,10,06,14,46,363.60
2011,10,06,14,47,332.60
2011,10,06,14,48,357.10
2011,10,06,14,49,362.00
2011,10,06,14,50,362.00
2011,10,06,14,51,343.10
2011,10,06,14,52,289.40
2011,10,06,14,53,261.30
2011,10,06,14,54,245.90
2011,10,06,14,55,239.80
2011,10,06,14,56,237.60
2011,10,06,14,57,238.50
2011,10,06,14,58,236.70
2011,10,06,14,59,237.30
2011,10,06,15,00,241.90
2011,10,06,15,01,244.00
2011,10,06,15,02,244.60
2011,10,06,15,03,249.30
2011,10,06,15,04,260.60
2011,10,06,15,05,269.60
2011,10,06,15,06,260.50
2011,10,06,15,07,229.40
2011,10,06,15,08,213.10
2011,10,06,15,09,211.00
2011,10,06,15,10,211.00
2011,10,06,15,11,207.40
2011,10,06,15,12,196.90
2011,10,06,15,13,189.90
2011,10,06,15,14,183.40
2011,10,06,15,15,179.00
2011,10,06,15,16,180.20
2011,10,06,15,17,186.00
2011,10,06,15,18,199.00
2011,10,06,15,19,219.30
2011,10,06,15,20,234.00
2011,10,06,15,21,234.00
2011,10,06,15,22,234.00
2011,10,06,15,23,316.80
2011,10,06,15,24,494.70
2011,10,06,15,25,483.30
2011,10,06,15,26,540.00
2011,10,06,15,27,441.30
2011,10,06,15,28,211.00
2011,10,06,15,29,201.40
2011,10,06,15,30,179.00
2011,10,06,15,31,179.60
2011,10,06,15,32,180.40
2011,10,06,15,33,178.70
2011,10,06,15,34,179.50
2011,10,06,15,35,185.70
2011,10,06,15,36,204.60
2011,10,06,15,37,227.10
2011,10,06,15,38,208.30
2011,10,06,15,39,202.60
2011,10,06,15,40,202.80
2011,10,06,15,41,200.00
2011,10,06,15,42,200.00
2011,10,06,15,43,200.00
2011,10,06,15,44,258.20
2011,10,06,15,45,386.50
2011,10,06,15,46,369.00
2011,10,06,15,47,369.00
2011,10,06,15,48,328.70
2011,10,06,15,49,241.50
2011,10,06,15,50,320.80
2011,10,06,15,51,367.00
2011,10,06,15,52,367.00
2011,10,06,15,53,384.10
2011,10,06,15,54,424.00
2011,10,06,15,55,424.90
2011,10,06,15,56,421.30
2011,10,06,15,57,405.90
2011,10,06,15,58,398.30
2011,10,06,15,59,390.50
2011,10,06,16,00,387.00
2011,10,06,16,01,386.40
2011,10,06,16,02,385.60
2011,10,06,16,03,387.00
2011,10,06,16,04,387.00
2011,10,06,16,05,387.30
2011,10,06,16,06,387.70
2011,10,06,16,07,387.00
2011,10,06,16,08,387.90
2011,10,06,16,09,390.00
2011,10,06,16,10,390.00
2011,10,06,16,11,390.00
2011,10,06,16,12,385.80
2011,10,06,16,13,375.10
2011,10,06,16,14,358.60
2011,10,06,16,15,325.00
2011,10,06,16,16,283.30
2011,10,06,16,17,177.00
2011,10,06,16,18,156.00
2011,10,06,16,19,208.80
2011,10,06,16,20,329.30
2011,10,06,16,21,320.90
2011,10,06,16,22,314.20
2011,10,06,16,23,306.90
2011,10,06,16,24,301.70
2011,10,06,16,25,301.30
2011,10,06,16,26,300.20
2011,10,06,16,27,294.10
2011,10,06,16,28,292.90
2011,10,06,16,29,294.70
2011,10,06,16,30,294.00
2011,10,06,16,31,294.00
2011,10,06,16,32,294.30
2011,10,06,16,33,296.80
2011,10,06,16,34,301.00
2011,10,06,16,35,248.20
2011,10,06,16,36,128.00
2011,10,06,16,37,122.40
2011,10,06,16,38,90.90
2011,10,06,16,39,86.00
2011,10,06,16,40,86.00
2011,10,06,16,41,86.00
2011,10,06,16,42,86.00
2011,10,06,16,43,86.00
2011,10,06,16,44,86.00
2011,10,06,16,45,87.50
2011,10,06,16,46,99.70
2011,10,06,16,47,120.00
2011,10,06,16,48,170.10
2011,10,06,16,49,287.30
2011,10,06,16,50,286.70
2011,10,06,16,51,279.70
2011,10,06,16,52,253.10
2011,10,06,16,53,223.70
2011,10,06,16,54,258.00
2011,10,06,16,55,219.00
2011,10,06,16,56,128.00
2011,10,06,16,57,135.50
2011,10,06,16,58,140.10
2011,10,06,16,59,102.80
2011,10,06,17,00,100.00
2011,10,06,17,01,101.20
2011,10,06,17,02,104.00
2011,10,06,17,03,102.20
2011,10,06,17,04,95.60
2011,10,06,17,05,87.90
2011,10,06,17,06,82.40
2011,10,06,17,07,79.80
2011,10,06,17,08,74.90
2011,10,06,17,09,67.90
2011,10,06,17,10,63.60
2011,10,06,17,11,66.50
2011,10,06,17,12,75.40
2011,10,06,17,13,83.80
2011,10,06,17,14,74.00
2011,10,06,17,15,71.90
2011,10,06,17,16,64.90
2011,10,06,17,17,58.80
2011,10,06,17,18,55.10
2011,10,06,17,19,52.40
2011,10,06,17,20,51.00